Torna al catalogo

COSMOS 1275 DEB

AttivoPO
NORAD 14408·DEBRIS·🇷🇺 Russia

Lanciato Jun 4, 1981 da Plesetsk Cosmodrome

Loading…

Prossimi Passaggi (prossime 24 ore)

TLE

In scadenzaSource: Space-Track

Epoca: Sep 9, 2026, 01:51 UTC

1 14408U 81053JD  26252.07767855  .00000665  00000-0  66938-3 0  9998
2 14408  82.9599 110.8020 0112548 155.1330 357.5086 13.73285919714972

Traccia COSMOS 1275 DEB in tempo reale con AllMySat

Download on the App Store